SSEC Globe Logo

Space Science and Engineering Center

Wisconsin State Observations

ASUS43 KMKX 190720                                              2019050 0721
RWRWI
WISCONSIN REGIONAL WEATHER ROUNDUP
NATIONAL WEATHER SERVICE MILWAUKEE/SULLIVAN WI
NOTE: "FAIR" INDICATES FEW OR NO CLOUDS BELOW 12,000 FEET WITH NO
SIGNIFICANT WEATHER AND/OR OBSTRUCTIONS TO VISIBILITY.

CITY           SKY/WX    TMP DP  RH WIND       PRES   REMARKS
SUPERIOR ARPT  FAIR       0  -8  66 SW6       30.52S WCI -11
ASHLAND        FAIR      -4  -9  79 SW6       30.51S WCI -16
HAYWARD        FAIR      -6 -10  83 CALM      30.49R
SIREN          CLOUDY    -3  -7  81 CALM      30.52S
CUMBERLAND     FAIR       0  -4  85 CALM      30.49S
RICE LAKE      FAIR      -6 -10  84 CALM      30.51S
CHETEK         MOCLDY    -4  -7  88 CALM      30.51S
LADYSMITH      FAIR      -5 -10  81 CALM      30.51S
EAU CLAIRE     FAIR      -1  -4  87 CALM      30.52S
MENOMONIE      FAIR      -6 -10  82 CALM      30.54R
NEW RICHMOND   FAIR      -4  -8  81 CALM      30.52S
OSCEOLA        FAIR      -3  -6  88 CALM      30.56S


CITY           SKY/WX    TMP DP  RH WIND       PRES   REMARKS
MANITOWISH WTR NOT AVBL
ARBOR VITAE    MOCLDY    -4  -8  83 CALM      30.44S
WOODRUFF       MOCLDY    -4  -8  83 CALM      30.44S
RHINELANDER    MOCLDY    -4 -10  75 CALM      30.44S
EAGLE RIVER    FAIR     -11 -17  75 CALM      30.44S
LAND O LAKES   FAIR     -13 -19  77 CALM      30.46S
PHILLIPS       FAIR      -8 -11  83 CALM      30.46S
TOMAHAWK       FAIR      -9 -14  80 CALM      30.47S
MEDFORD        FAIR       0  -3  87 CALM      30.47R
MERRILL        FAIR      -5 -10  81 CALM      30.49R


CITY           SKY/WX    TMP DP  RH WIND       PRES   REMARKS
WAUSAU         FAIR       1  -3  83 CALM      30.48S
MOSINEE        FAIR       3   0  85 W3        30.50S
MARSHFIELD     FAIR       3  -2  79 CALM      30.47F
STEVENS POINT  FAIR      -6  -9  84 CALM      30.51S
WAUPACA        FAIR       3  -3  75 CALM      30.54R
WAUTOMA        FAIR      -6 -10  83 CALM      30.55R
WISC RAPIDS    FAIR      -1  -7  75 CALM      30.53R
CAMP DOUGLAS   FAIR      -4  -8  85 CALM      30.54R


CITY           SKY/WX    TMP DP  RH WIND       PRES   REMARKS
ANTIGO         FAIR     -13 -17  82 CALM      30.47R
SHAWANO        FAIR       3  -4  72 CALM      30.53R
OCONTO         FAIR      -4  -8  84 CALM      30.53S
STURGEON BAY   FAIR       5   0  79 SW3       30.54
GREEN BAY      FAIR       5  -1  76 SW5       30.53S WCI  -4
MANITOWOC      MOCLDY     4   0  83 SW5       30.55S WCI  -5
APPLETON       FAIR       9  -4  56 W7        30.51R WCI  -3
CLINTONVILLE   FAIR       1  -4  80 CALM      30.53R
OSHKOSH        FAIR       1  -1  91 CALM      30.54R


CITY           SKY/WX    TMP DP  RH WIND       PRES   REMARKS
LA CROSSE      FOG       -1  -4  87 CALM      30.57R VSB 1/4
SPARTA         FAIR      -8 -11  86 CALM      30.56R
VIROQUA        FAIR       9   8  97 CALM      30.50F
BOSCOBEL       FAIR       1  -5  75 CALM      30.57R HAZE
PRAIRIE DU CHI FAIR       1  -4  82 CALM      30.59R
PLATTEVILLE    FAIR       9   9  98 CALM      30.54S

CITY           SKY/WX    TMP DP  RH WIND       PRES   REMARKS
REEDSBURG      FAIR      -2  -4  89 CALM      30.54S
BARABOO/DELLS  FAIR       3   0  85 CALM      30.54R FOG
LONE ROCK      FAIR      -5  -9  83 CALM      30.57R
MINERAL POINT  FAIR      14  14 100 CALM      30.52R
MADISON        FAIR       0  -3  87 MISG      30.54R
MIDDLETON      FAIR      -4  -8  84 CALM      30.54S
WATERTOWN      FAIR      -3  -6  88 CALM      30.55R
MONROE         FAIR      13  10  88 MISG      30.53S
JANESVILLE     FAIR       5   1  85 CALM      30.57R


CITY           SKY/WX    TMP DP  RH WIND       PRES   REMARKS
MILWAUKEE      FAIR      13   6  74 CALM      30.55S
WAUKESHA       FAIR       5   1  85 CALM      30.55S
MILWAUKEE/TIMM FAIR       5   1  85 CALM      30.57R
RACINE         FAIR      13   6  74 W5        30.57R WCI   5
KENOSHA        FAIR       5   2  87 W5        30.56R WCI  -4
FOND DU LAC    FAIR       1  -2  87 S3        30.54R
SHEBOYGAN      FAIR      -2  -6  83 W3        30.54R
WEST BEND      FAIR       1   0  92 CALM      30.54S
JUNEAU         FAIR       4   1  90 CALM      30.54S
LSZ147-162-190800-
LAKE SUPERIOR

STATION/POSITION TIME  TEMP    WIND        PRES    WAVE
                       AIR SEA DIR/SP/G            HT/PER
                 (UTC) (F)     (DEG/KT/KT) (MB)    (FT/S)
DEVILS ISLAND    0700   12     210/  8/  8 1034.4F
SAXON HARBOR     0640   -5     190/  5/  6 1032.8S

LMZ867-665-643>646-190800-
LAKE MICHIGAN

STATION/POSITION TIME  TEMP    WIND        PRES    WAVE
                       AIR SEA DIR/SP/G            HT/PER
                 (UTC) (F)     (DEG/KT/KT) (MB)    (FT/S)
NORTHPORT PIER   0703    6      CALM  /  1 1033.9
KEWAUNEE LAKESHO 0654    9     300/  3/  6 1032.9S
SHEBOYGAN LAKESH 0700   13     260/  9/ 10 1035.7R
PORT WASHINGTON  0640    9     280/  5/  6 1035.9R
MILWAUKEE LAKESH 0700   18        CALM       N/A
KENOSHA   LAKESH 0700   15     280/  5/  6 1034.9
TC  - TEMPERATURE IN CELSIUS
VSB - VISIBILITY IN STATUTE MILES
WCI - WIND CHILL INDEX
HX  - HEAT INDEX